Location: Fort Wayne
(41.1310°N, 85.1290°W)
Time: 20:15:00
(UTC-04:00)

Cosmos 1953 - Visible Passes

Search period start: 26 April 2015 00:00
Search period end: 06 May 2015 00:00
Orbit: 545 x 566 km, 82.5° (Epoch: 25 April)

Date Brightness Start Highest point End Pass type
(mag) Time Alt. Az. Time Alt. Az. Time Alt. Az.
26 Apr 4.0 03:45:34 10° N 03:47:39 29° NNW 03:47:39 29° NNW visible
27 Apr 4.1 03:42:55 10° NNW 03:44:50 27° NNW 03:44:50 27° NNW visible
28 Apr 4.2 03:40:18 10° NNW 03:42:03 24° NNW 03:42:03 24° NNW visible
29 Apr 5.4 02:03:07 10° NE 02:03:27 11° NE 02:03:27 11° NE visible
29 Apr 4.3 03:37:40 10° NNW 03:39:16 22° NNW 03:39:16 22° NNW visible
30 Apr 5.3 02:00:01 10° NE 02:00:41 12° NE 02:00:41 12° NE visible
30 Apr 4.4 03:35:02 10° NNW 03:36:30 20° NNW 03:36:30 20° NNW visible
01 May 5.2 01:57:01 10° NNE 01:57:55 13° NE 01:57:55 13° NE visible
01 May 4.5 03:32:26 10° NNW 03:33:44 19° NW 03:33:44 19° NW visible
02 May 5.2 01:54:05 10° NNE 01:55:09 14° NE 01:55:09 14° NE visible
02 May 4.6 03:29:50 10° NNW 03:30:58 17° NW 03:30:58 17° NW visible
03 May 5.1 01:51:11 10° NNE 01:52:24 15° NE 01:52:24 15° NE visible
03 May 4.7 03:27:14 10° NNW 03:28:13 16° NW 03:28:13 16° NW visible
04 May 5.0 01:48:18 10° NNE 01:49:39 17° NE 01:49:39 17° NE visible
04 May 4.8 03:24:39 10° NNW 03:25:28 14° NW 03:25:28 14° NW visible
05 May 4.9 01:45:27 10° NNE 01:46:55 18° NNE 01:46:55 18° NNE visible
05 May 4.9 03:22:06 10° NW 03:22:44 13° NW 03:22:44 13° NW visible
